Regional Weather Roundup
Issued by NWS

Home | Current Version | Previous Version | Text Only | Print | Product List | Glossary Off
Versions: 1 2 3 4 5 6 7 8 9 10 11 12 13 14 15 16 17 18 19 20 21 22 23 24 25 26 27 28 29 30 31 32 33 34 35 36 37 38 39 40 41 42 43 44 45 46 47 48 49 50

000
ASUS43 KOAX 231902
RWRNE

WEATHER ROUNDUP FOR NEBRASKA
NATIONAL WEATHER SERVICE OMAHA NE
100 PM CST MON JAN 23 2017

NOTES: SATELLITE DATA IS BEING USED TO AUGMENT CLOUD COVER ABOVE
       12000 FEET.
       "FAIR" INDICATES FEW OR NO CLOUDS BELOW 12,000 FEET WITH NO
       SIGNIFICANT WEATHER AND/OR OBSTRUCTIONS TO VISIBILITY.

  * THESE STATIONS DO NOT REPORT WEATHER SUCH AS RAIN...SNOW OR FOG.

NEZ001>004-019>022-054>056-232000-
NEBRASKA PANHANDLE

CITY           SKY/WX    TMP DP  RH WIND       PRES   REMARKS
SCOTTSBLUFF    PTSUNNY   43  25  49 E3        29.58F
ALLIANCE       SUNNY     44  32  62 MISG      29.57F
CHADRON        PTSUNNY   40  25  55 NW3       29.58F
KIMBALL        CLOUDY    44  29  56 N3        29.57F
SIDNEY         SUNNY     46  24  42 N7        29.58F
$$

NEZ057>060-069>072-079>082-232000-
SOUTHWEST NEBRASKA

CITY           SKY/WX    TMP DP  RH WIND       PRES   REMARKS
NORTH PLATTE   SUNNY     49  25  39 S18G24    29.65F
IMPERIAL       SUNNY     44  26  49 VRB3      29.61F
LEXINGTON      SUNNY     46  32  58 SE13      29.69F
MCCOOK         SUNNY     51  30  44 S17G26    29.64F
OGALLALA       SUNNY     44  29  54 CALM      29.61F
$$

NEZ005>010-023>029-035>040-094-232000-
NORTH CENTRAL NEBRASKA

CITY           SKY/WX    TMP DP  RH WIND       PRES   REMARKS
VALENTINE      CLOUDY    38  29  70 NE9       29.65F WCI  31
AINSWORTH      CLOUDY    38  30  72 SE13      29.67F WCI  30
BROKEN BOW     CLOUDY    41  33  73 SE12G23   29.69F
O`NEILL        CLOUDY    32  32 100 S10       29.76F WCI  23
ORD            CLOUDY    33  28  81 SE8       29.73F WCI  26
THEDFORD       CLOUDY    43  30  60 S12G18    29.65F
$$

NEZ041-046>049-061>064-073>077-083>087-232000-
SOUTH CENTRAL NEBRASKA

CITY           SKY/WX    TMP DP  RH WIND       PRES   REMARKS
GRAND ISLAND   CLOUDY    32  31  96 E9        29.77F WCI  24
AURORA         FOG       31  31 100 E8        29.78F VSB 3/4 WCI  24
HASTINGS       SUNNY     38  32  79 E8        29.77F WCI  32
HEBRON         PTSUNNY   38  34  85 E7        29.80F WCI  33
HOLDREGE       SUNNY     45  32  60 SE15      29.70F
KEARNEY *      MOSUNNY   39  32  75 SE10      29.73F WCI  32
YORK           MOSUNNY   32  32 100 SE8       29.81F FOG     WCI  25
$$

NEZ011>018-030>034-042>045-232000-
NORTHEAST NEBRASKA

CITY           SKY/WX    TMP DP  RH WIND       PRES   REMARKS
NORFOLK        CLOUDY    32  26  78 SE6       29.80F WCI  26
ALBION         CLOUDY    33  28  83 SE6       29.78F WCI  27
BLAIR          CLOUDY    37  31  79 E8        29.83F WCI  30
FREMONT        CLOUDY    34  29  83 SE5       29.85F WCI  30
TEKAMAH        CLOUDY    34  28  79 E6        29.85F WCI  29
WAYNE          CLOUDY    33  29  84 S3        29.82F
$$

NEZ050>053-065>068-078-088>093-232000-
SOUTHEAST NEBRASKA

CITY           SKY/WX    TMP DP  RH WIND       PRES   REMARKS
LINCOLN        CLOUDY    38  30  73 SE5       29.85F WCI  34
OMAHA EPPLEY   CLOUDY    36  28  73 NE5       29.86F WCI  32
BEATRICE       CLOUDY    33  33 100 SE8       29.83F FOG     WCI  25
FALLS CITY     CLOUDY    36  30  79 CALM      29.87F
NEBRASKA CITY  CLOUDY    34  28  80 CALM      29.87F
PLATTSMOUTH    CLOUDY    34  27  76 SE3       29.86F
$$

NEZ044-045-051>053-067-232000-
OMAHA AREA

CITY           SKY/WX    TMP DP  RH WIND       PRES   REMARKS
OMAHA EPPLEY   CLOUDY    36  28  73 NE5       29.86F WCI  32
BLAIR          CLOUDY    37  31  79 E8        29.83F WCI  30
FREMONT        CLOUDY    34  29  83 SE5       29.85F WCI  30
MILLARD        CLOUDY    37  30  75 S5        29.85F WCI  33
OFFUTT AFB     CLOUDY    36  32  84 VRB3      29.85F
PLATTSMOUTH    CLOUDY    34  27  76 SE3       29.86F
WAHOO          CLOUDY    34  29  82 E6        29.84F WCI  29
$$



USA.gov is the U.S. government's official web portal to all federal, state and local government web resources and services.